Regional Weather Roundup
Issued by NWS Kansas City/Pleasant Hill, MO

Home | Current Version | Previous Version | Text Only | Print | Product List | Glossary On
Versions: 1 2 3 4 5 6 7 8 9 10 11 12 13 14 15 16 17 18 19 20 21 22 23 24 25 26 27 28 29 30 31 32 33 34 35 36 37 38 39 40 41 42 43 44 45 46 47 48 49 50
000
ASUS43 KEAX 281211
RWREAX

WEATHER ROUNDUP FOR EASTERN KANSAS AND NORTHWEST MISSOURI
NATIONAL WEATHER SERVICE KANSAS CITY/PLEASANT HILL MO
700 AM CDT THU MAY 28 2015

KSZ040-057-103>105-MOZ028-029-037-043-281300-
...KANSAS CITY METROPOLITAN AREA...

CITY           SKY/WX    TMP DP  RH WIND       PRES   REMARKS
K.C. INTL      TSTM      65  58  78 SW8       30.13R
6HR MIN TEMP:  65; 6HR MAX TEMP:  69; 6HR PCP: TRACE;

K.C. DOWNTOWN  TSTM      68  59  73 SW10G24   30.12R
6HR MIN TEMP:  65; 6HR MAX TEMP:  70; 6HR PCP: TRACE;

LEES SUMMIT    CLOUDY    67  58  72 VRB7      30.11R
6HR MIN TEMP:  65; 6HR MAX TEMP:  69;

OLATHE - IXD   LGT RAIN  64  62  93 W8        30.11F
6HR MIN TEMP:  64; 6HR MAX TEMP:  69; 6HR PCP:  0.06;

OLATHE - OJC   LGT RAIN  65  62  90 W8        30.11R
6HR MIN TEMP:  65; 6HR MAX TEMP:  69; 6HR PCP:  0.01;

LAWRENCE       LGT RAIN  64  61  90 CALM      30.10F FOG

$$

MOZ001>008-011>017-020>025-030>033-038>040-044>046-053-054-281300-
...NORTHERN AND CENTRAL MISSOURI...

CITY           SKY/WX    TMP DP  RH WIND       PRES   REMARKS
ST. JOSEPH     CLOUDY    65  57  75 SE3       30.08S THUNDER
6HR MIN TEMP:  60; 6HR MAX TEMP:  67; 6HR PCP: TRACE;

MOSBY          CLOUDY    63  59  88 CALM      30.09S
WARRENSBURG    CLOUDY    63  59  88 CALM      30.10S
WHITEMAN AFB   PTSUNNY   63  58  84 SE2       30.10R
6HR MIN TEMP:  62; 6HR MAX TEMP:  65;

CLINTON        CLOUDY    64  63  94 CALM      30.11R
SEDALIA        CLOUDY    65  58  78 SE7       30.12R
6HR MIN TEMP:  63; 6HR MAX TEMP:  66;

WARSAW         NOT AVBL
CHILLICOTHE      N/A     64  58  80 SE3       30.13R
6HR MIN TEMP:  60; 6HR MAX TEMP:  64;

KIRKSVILLE     PTSUNNY   64  59  83 SE9       30.16R
6HR MIN TEMP:  58; 6HR MAX TEMP:  64;


$$

MOZ041-047>049-056>058-063>065-088>090-097-281300-
...EASTERN AND SOUTHERN MISSOURI...

CITY           SKY/WX    TMP DP  RH WIND       PRES   REMARKS
ST. LOUIS INTL PTSUNNY   67  58  72 E5        30.16R
6HR MIN TEMP:  62; 6HR MAX TEMP:  69;

SPIRIT OF STL  SUNNY     61  60  97 CALM      30.14S
COLUMBIA       PTSUNNY   65  58  78 SE9       30.13R
JEFFERSON CITY PTSUNNY   63  59  87 SE6       30.12R
ROLLA          MOSUNNY   63  61  93 E8        30.13R
OSAGE BEACH    MOSUNNY   63  59  88 E6        30.12R
SPRINGFIELD    MOSUNNY   68  65  90 SE8       30.11R
BRANSON        FOG       66  66 100 SE5       30.13S VSB 1/4
JOPLIN         CLOUDY    67  63  87 E3        30.10R
WEST PLAINS    FOG       67  66  97 SE3       30.16R VSB 1/4

$$

IAZ060-094-KSZ022-034>040-054-083-096-NEZ052-066-093-281300-
...KANSAS...SOUTHEAST NEBRASKA AND IOWA...

CITY           SKY/WX    TMP DP  RH WIND       PRES   REMARKS
TOPEKA         RAIN      64  63  96 CALM      30.10F FOG
6HR MIN TEMP:  64; 6HR MAX TEMP:  69; 6HR PCP:  0.26;

MANHATTAN      RAIN      63  63 100 E9        30.05F FOG
EMPORIA        CLOUDY    64  63  96 E7        30.07F
CHANUTE        CLOUDY    65  64  97 SE3       30.08R
WICHITA        CLOUDY    65  61  87 E5        30.05R
OMAHA          CLOUDY    62  55  77 SE6       30.07R
LINCOLN        LGT RAIN  63  60  90 S13       30.07R
LAMONI         CLOUDY    65  55  70 SE8       30.13R
DES MOINES     CLOUDY    64  56  75 S6        30.13R

$$




USA.gov is the U.S. government's official web portal to all federal, state and local government web resources and services.